RH
9 9 9 9 8 8 8 8 7 7 7 7 6 6 6 6 6 6 6 6 6 6 6 6 6 5 5 5 5 5 5 4 4 4 4 3 3 3 3 2 2 2 2 2 1 1 1 1 1 1 1 1 1 1 2 3 5 8 12 19 27 36 45 52 59 65 70 74 76 77 79 80 82 84 85 85 84 83 82 80 76 71 65 59 55 52 50 49 48 48 48 46 42 38 34 29 26 22 19 17 15 14 12
10 10 9 9 9 9 8 8 8 8 7 7 7 7 7 6 6 6 6 6 6 6 6 6 6 6 6 5 5 5 5 5 5 4 4 4 4 4 3 3 3 3 2 2 2 2 1 1 1 1 1 1 1 1 1 1 2 3 4 7 13 20 28 37 45 53 60 65 70 73 75 76 78 80 82 84 85 85 85 84 81 78 73 68 64 60 56 53 51 51 51 51 49 46 42 37 32 28 24 21 19 17 15
11 11 10 10 9 9 9 8 8 8 8 8 8 7 7 7 7 6 6 6 6 6 6 6 6 6 6 6 6 5 5 5 5 5 5 4 4 4 4 4 3 3 3 3 2 2 2 1 1 1 1 1 1 1 1 1 1 1 1 2 4 8 13 21 29 38 46 54 60 66 69 72 75 77 79 81 85 87 88 87 85 83 80 77 74 70 67 61 56 53 52 52 52 51 49 45 40 35 31 27 24 21 18
13 12 11 11 10 10 9 9 9 8 8 8 8 8 8 7 7 7 7 7 6 6 6 6 6 6 6 6 6 6 6 5 5 5 5 5 5 4 4 4 4 4 4 3 3 3 2 2 2 1 1 1 1 1 1 1 1 1 1 1 1 2 4 8 14 22 30 39 47 54 60 65 68 72 74 77 81 85 88 89 88 87 85 83 81 79 76 71 65 60 55 53 52 52 53 52 50 46 41 35 31 27 23
14 13 13 12 12 11 10 10 10 9 9 8 8 8 8 8 8 7 7 7 7 7 7 7 6 6 6 6 6 6 6 6 6 5 5 5 5 5 5 5 4 4 4 4 4 3 3 3 2 2 2 1 1 1 1 1 1 1 1 1 1 1 1 3 6 10 15 22 30 38 46 53 59 64 68 71 75 79 84 86 88 89 88 87 86 85 83 79 75 69 63 57 54 52 53 56 57 55 52 47 41 35 30
15 15 14 14 13 13 12 11 11 10 10 9 9 8 8 8 8 8 8 8 7 7 7 7 7 7 7 7 6 6 6 6 6 6 6 5 5 5 5 5 5 5 5 4 4 4 4 3 3 3 2 2 2 1 1 1 1 1 1 1 1 1 1 3 4 5 6 10 15 22 29 37 45 52 58 63 67 72 76 80 84 87 90 90 89 88 87 85 82 77 72 65 59 55 55 56 57 58 59 56 52 46 40
15 15 15 15 15 14 14 13 12 12 11 10 10 9 9 9 8 8 8 8 8 8 8 7 7 7 7 7 7 7 7 6 6 6 6 6 6 5 5 5 5 5 5 5 5 4 4 4 4 3 3 3 2 2 1 1 1 1 1 1 1 1 1 1 2 2 3 4 7 11 15 21 29 37 44 51 56 62 67 72 77 82 87 90 90 90 90 88 86 83 80 74 68 63 59 58 57 57 59 60 59 55 51
14 14 15 15 15 15 15 14 14 13 13 12 11 11 10 10 9 9 8 8 8 8 8 8 8 8 7 7 7 7 7 7 7 7 7 6 6 6 6 5 5 5 5 5 5 5 5 4 4 4 4 3 3 3 2 2 1 1 1 1 1 1 1 1 1 1 1 3 4 5 7 11 16 23 30 37 43 48 54 61 67 73 79 84 88 90 91 90 88 87 84 81 77 73 68 64 61 58 57 59 60 60 59
12 13 14 14 15 15 15 15 15 15 14 14 13 12 12 11 10 10 10 9 9 8 8 8 8 8 8 8 8 8 8 7 7 7 7 7 7 6 6 6 6 6 5 5 5 5 5 5 5 5 4 4 4 3 3 3 2 2 1 1 1 1 1 1 1 1 1 1 2 2 3 5 8 12 18 25 30 36 41 48 55 61 68 75 81 86 89 90 90 89 88 86 84 81 78 74 69 64 60 59 59 60 61
11 12 12 13 14 14 15 15 15 15 15 15 14 14 13 13 12 11 11 10 10 9 9 8 8 8 8 8 8 8 8 8 8 8 8 7 7 7 7 7 6 6 6 6 6 5 5 5 5 5 5 5 4 4 4 3 3 3 2 2 2 1 1 1 1 1 1 1 1 1 1 1 3 5 9 14 19 24 30 36 42 49 56 63 70 76 81 85 87 89 89 88 87 86 85 82 78 73 68 64 62 62 62
10 11 11 12 12 13 14 15 15 16 16 16 15 15 15 14 14 13 12 12 11 10 10 9 9 9 8 8 8 8 8 8 8 8 8 8 8 7 7 7 7 7 7 6 6 6 6 6 5 5 5 5 5 5 4 4 4 3 3 3 2 2 2 1 1 1 1 1 1 1 1 1 1 2 4 7 10 14 18 24 29 36 43 50 57 64 71 76 79 82 85 87 88 88 88 87 85 81 77 73 70 67 65
10 10 10 11 11 12 13 14 14 15 15 16 16 16 16 15 15 14 14 13 13 12 11 11 10 10 9 9 8 8 8 8 8 8 8 8 8 8 8 8 7 7 7 7 7 7 6 6 6 6 6 5 5 5 5 5 4 4 4 4 3 3 2 2 2 1 1 1 1 1 1 1 1 1 1 2 4 6 9 13 17 22 28 35 42 49 57 63 68 72 75 79 83 86 88 88 88 87 84 81 78 75 71
10 10 10 10 11 11 12 13 14 14 15 15 16 16 16 16 16 15 15 14 14 13 13 12 12 11 10 10 10 9 9 8 8 8 8 8 8 8 8 8 8 8 7 7 7 7 7 7 7 6 6 6 6 5 5 5 5 5 5 4 4 4 3 3 2 2 1 1 1 1 1 1 1 1 1 1 1 2 3 5 8 11 16 21 26 33 40 47 53 58 63 68 72 77 82 86 88 89 88 87 85 83 79
10 10 10 10 10 11 11 12 13 14 15 15 15 16 16 16 16 16 16 15 15 15 14 14 13 12 12 11 11 10 10 9 9 9 8 8 8 8 8 8 8 8 8 8 7 7 7 7 7 7 7 7 6 6 6 6 5 5 5 5 5 5 4 4 3 3 2 2 2 1 1 1 1 1 1 1 1 1 1 2 3 4 7 10 14 19 24 30 36 43 49 54 59 64 69 75 81 85 88 88 88 87 85
9 10 10 10 10 11 11 12 13 13 14 15 15 16 16 16 16 16 16 16 16 15 15 15 14 14 13 13 12 12 11 11 10 10 9 9 9 8 8 8 8 8 8 8 8 8 7 7 7 7 7 7 7 7 7 7 6 6 6 6 5 5 5 5 4 4 3 3 2 2 2 1 1 1 1 1 1 1 1 1 1 1 2 4 6 9 13 18 24 29 34 38 43 47 52 59 66 73 80 84 86 87 88
9 10 10 10 10 11 11 12 12 13 14 15 15 15 16 16 16 16 16 16 16 16 16 15 15 15 14 14 13 13 13 12 12 11 11 10 10 9 9 9 8 8 8 8 8 8 8 7 7 7 7 7 7 7 7 7 7 7 7 7 6 6 5 5 5 5 4 4 3 3 3 2 2 1 1 1 1 1 1 1 1 1 1 1 2 3 5 8 13 17 21 24 27 31 35 39 46 53 61 69 75 81 85
10 10 10 10 11 11 11 12 12 13 14 14 15 15 16 16 16 16 16 16 16 16 16 16 15 15 15 15 14 14 14 13 13 12 12 12 11 11 10 10 9 9 9 8 8 8 8 8 8 8 7 7 7 7 7 8 8 8 8 8 7 7 7 6 6 5 5 5 4 4 4 3 3 2 2 2 1 1 1 1 1 1 1 1 1 1 1 2 4 7 10 12 15 19 22 24 27 33 39 47 55 63 71
10 10 10 11 11 11 12 12 13 13 14 14 15 15 16 16 16 16 16 16 16 15 15 15 15 15 15 15 15 15 15 14 14 14 13 13 12 12 12 11 11 10 10 9 9 9 8 8 8 8 8 8 8 8 8 8 8 8 8 8 8 8 8 7 7 7 6 6 5 5 5 4 4 3 3 3 2 2 1 1 1 1 1 1 1 1 1 1 1 1 2 4 7 12 20 21 20 21 23 29 35 40 47
10 11 11 11 12 12 12 13 13 14 14 15 15 15 16 16 16 16 16 16 16 16 15 15 15 15 15 15 15 15 15 15 15 14 14 14 14 13 13 12 12 12 11 11 10 10 10 9 9 8 8 8 8 8 8 8 8 8 8 8 8 8 8 8 8 8 8 7 7 6 6 5 5 5 4 4 3 3 2 2 2 1 1 1 1 1 1 1 1 1 1 1 2 7 17 23 23 21 18 19 20 21 23
11 11 12 12 12 12 13 13 14 14 14 15 15 16 16 16 16 16 16 16 16 16 16 16 16 15 15 15 15 15 15 15 15 15 15 15 14 14 14 14 13 13 13 12 12 11 11 10 10 10 9 9 9 8 8 8 8 8 8 8 8 8 8 8 8 8 8 8 8 8 7 7 6 6 5 5 5 4 4 3 2 2 2 1 1 1 1 1 1 1 1 1 1 2 4 12 17 19 18 17 15 13 14
12 12 12 12 13 13 13 14 14 14 15 15 15 16 16 16 16 16 16 16 16 16 16 16 16 15 15 15 15 15 15 15 15 15 15 15 15 15 15 14 14 14 14 13 13 13 12 12 11 11 11 10 10 10 9 9 9 9 9 8 8 8 8 8 8 8 8 8 8 8 8 8 8 8 7 7 6 6 5 4 4 3 3 2 2 2 1 1 1 1 1 1 1 1 1 2 5 10 15 17 17 16 18
12 13 13 13 13 14 14 14 14 15 15 15 15 15 16 16 16 16 16 16 16 16 16 16 15 15 15 15 15 15 15 15 15 15 15 15 15 15 15 15 15 14 14 14 14 14 13 13 13 12 12 12 11 11 10 10 10 10 9 9 9 9 9 9 9 8 8 8 9 9 9 9 9 9 8 8 8 7 7 6 6 5 4 4 3 3 2 2 2 1 1 1 1 1 1 1 2 5 10 16 20 23 29
13 13 13 14 14 14 14 14 15 15 15 15 15 15 15 15 15 15 15 15 15 15 15 15 15 15 15 15 15 15 15 15 15 15 15 15 14 14 14 15 15 15 15 14 14 14 14 14 14 13 13 13 12 12 12 12 11 11 11 10 10 10 10 9 9 9 9 9 9 9 9 9 9 9 9 9 9 9 9 8 8 7 6 6 5 4 4 3 3 2 2 2 1 1 1 1 1 2 5 13 23 33 42
14 14 14 14 14 14 14 14 14 15 15 15 15 15 15 15 15 15 15 15 15 15 15 15 15 15 15 15 14 14 14 14 14 14 14 14 14 14 14 14 14 15 15 15 15 14 14 14 14 14 14 14 13 13 13 13 12 12 12 12 11 11 11 10 10 10 10 10 9 9 9 9 9 9 9 9 9 9 9 9 9 9 8 8 7 6 6 5 4 4 3 3 2 2 1 1 1 1 1 5 15 27 41
14 14 14 14 14 14 14 14 14 14 14 14 14 14 14 14 14 14 14 14 14 13 13 13 13 13 13 13 13 13 13 13 13 13 13 13 13 14 14 14 14 14 14 14 15 15 14 14 14 14 14 14 14 14 14 14 14 13 13 13 12 12 12 12 11 11 11 10 10 10 10 10 10 9 9 9 10 10 10 10 10 10 10 9 9 8 8 7 6 6 5 4 4 3 3 2 2 1 1 1 4 10 19
14 14 14 14 14 14 14 14 14 14 14 13 13 13 13 13 13 13 13 12 12 12 12 12 12 12 12 12 12 12 12 12 12 12 12 12 12 12 12 13 13 13 13 14 14 14 14 14 14 14 15 15 15 15 15 15 14 14 14 14 14 13 13 13 12 12 12 12 11 11 11 11 10 10 10 10 10 10 10 10 10 10 10 10 10 10 9 9 9 8 7 7 6 5 5 4 3 3 2 2 1 2 3
14 14 14 14 14 14 14 14 13 13 13 13 13 12 12 12 12 12 12 12 11 11 11 11 11 11 11 11 11 11 11 11 11 11 11 11 11 11 11 11 11 12 12 12 13 13 13 13 14 14 14 14 15 15 15 15 15 15 15 15 15 14 14 14 14 13 13 13 13 12 12 12 12 11 11 11 11 10 10 10 10 10 10 10 10 10 10 10 10 10 9 9 8 7 7 6 5 5 4 3 3 2 1
14 14 14 14 14 13 13 13 13 13 12 12 12 12 11 11 11 11 11 11 10 10 10 10 10 10 10 10 10 10 10 10 10 10 10 10 10 10 10 10 10 10 10 10 11 11 12 12 12 13 13 13 14 14 15 15 15 16 16 16 15 15 15 15 15 14 14 14 14 13 13 13 13 12 12 12 12 11 11 11 11 11 11 11 11 11 11 11 11 11 11 10 10 10 9 8 8 7 6 6 5 4 4
14 14 14 13 13 13 13 12 12 12 12 11 11 11 11 10 10 10 10 10 10 9 9 9 9 9 9 9 9 9 8 8 8 8 8 8 8 8 9 9 9 9 9 9 9 10 10 10 11 11 11 12 12 13 14 14 15 15 15 16 16 16 16 16 16 16 15 15 15 15 14 14 14 14 13 13 13 13 12 12 12 12 11 11 11 11 11 11 11 11 11 11 11 11 11 10 10 9 9 8 7 7 6
14 14 13 13 13 12 12 12 11 11 11 10 10 10 10 9 9 9 9 9 8 8 8 8 8 8 8 8 8 8 8 8 8 8 8 8 8 8 8 8 8 8 8 8 8 9 9 9 9 10 10 10 10 11 11 12 13 13 14 14 15 15 16 16 16 16 16 16 16 16 16 15 15 15 15 14 14 14 13 13 13 13 12 12 12 12 12 12 12 12 12 12 12 12 12 12 11 11 10 10 10 9 9
13 13 13 12 12 11 11 11 10 10 10 9 9 9 9 8 8 8 8 8 7 7 7 7 7 7 7 7 7 7 7 7 7 7 7 7 7 7 7 7 7 7 8 8 8 8 8 8 8 9 9 9 9 10 10 10 11 11 12 12 13 14 14 15 16 16 16 17 17 17 17 17 17 16 16 16 15 15 15 14 14 14 14 13 13 13 12 12 12 12 12 12 12 12 12 12 12 12 12 11 11 11 10
13 12 12 11 11 10 10 10 9 9 8 8 8 8 8 7 7 7 7 7 7 7 6 6 6 6 6 6 6 6 6 6 7 7 7 7 7 7 7 7 7 7 7 8 8 8 8 8 8 8 8 9 9 9 9 9 10 10 10 10 11 12 12 13 14 14 15 16 16 17 17 17 18 18 17 17 17 17 16 16 16 15 15 15 14 14 14 13 13 13 13 13 13 13 13 13 13 13 12 12 12 12 11
12 11 11 10 10 9 9 8 8 8 7 7 7 7 7 7 7 6 6 6 6 6 6 6 6 6 6 6 6 6 6 6 6 7 7 7 7 7 7 7 7 7 7 8 8 8 8 8 8 8 8 8 9 9 9 9 9 9 9 10 10 10 10 11 11 12 13 13 14 15 16 16 17 17 18 18 18 18 18 17 17 17 16 16 16 15 15 15 14 14 14 14 14 13 13 13 13 13 13 13 13 12 12
11 10 10 9 9 8 8 7 7 7 7 7 6 6 6 6 6 6 6 6 6 6 6 6 6 6 6 6 6 6 6 6 6 7 7 7 7 7 7 7 7 7 7 7 8 8 8 8 8 8 8 8 8 9 9 9 9 9 9 9 9 9 10 10 10 10 11 11 12 13 13 14 15 16 16 17 17 18 18 18 18 18 18 18 17 17 17 16 16 16 15 15 15 15 14 14 14 14 13 13 13 13 13
10 9 8 8 7 7 7 7 6 6 6 6 6 6 6 6 6 6 6 6 6 6 6 6 6 6 6 6 6 6 6 6 6 6 6 7 7 7 7 7 7 7 7 7 7 8 8 8 8 8 8 8 8 9 9 9 9 9 9 9 9 9 9 9 9 10 10 10 10 11 11 12 12 13 14 15 15 16 16 17 17 18 18 18 18 18 18 18 18 17 17 17 16 16 16 15 15 15 14 14 14 14 13
8 8 7 7 7 6 6 6 6 6 6 6 6 6 6 6 6 6 6 6 6 6 6 6 6 6 6 6 6 6 6 6 6 6 6 6 6 7 7 7 7 7 7 7 7 7 7 8 8 8 8 8 8 8 9 9 9 9 9 9 9 9 9 9 9 9 9 9 10 10 10 10 11 11 12 12 13 13 14 15 15 16 17 17 17 18 18 18 18 18 18 18 18 18 17 17 17 16 16 16 15 15 14
7 7 6 6 6 6 6 6 6 6 6 6 6 6 6 6 6 6 6 6 6 6 6 6 6 6 6 6 6 6 6 6 6 6 6 6 6 6 7 7 7 7 7 7 7 7 7 7 8 8 8 8 8 8 8 8 9 9 9 9 9 9 9 9 9 9 9 9 9 9 10 10 10 10 10 11 11 11 12 12 13 14 14 15 15 16 16 17 17 17 18 18 18 18 18 18 18 18 17 17 17 16 16
6 6 6 6 6 6 6 6 6 6 6 6 6 6 6 6 6 7 7 7 6 6 6 6 6 6 6 6 6 6 6 6 6 6 6 6 6 6 6 7 7 7 7 7 7 7 7 7 7 8 8 8 8 8 8 8 8 8 8 8 8 9 9 9 9 9 9 9 9 9 9 9 9 10 10 10 10 10 11 11 11 12 12 13 13 14 14 15 15 16 16 16 17 17 17 17 18 18 18 18 17 17 17
6 6 6 6 6 6 6 6 6 6 6 6 6 6 6 6 6 6 6 6 6 6 6 6 6 6 6 6 5 5 5 5 5 5 6 6 6 6 6 6 7 7 7 7 7 7 8 8 8 8 8 8 8 8 8 8 8 8 8 8 8 8 8 9 9 9 9 9 9 9 9 9 9 9 9 9 10 10 10 10 10 10 11 11 11 12 12 13 13 14 14 14 15 15 16 16 16 16 17 17 17 17 17
6 6 6 6 6 6 6 6 6 6 6 6 6 6 6 6 6 6 6 6 6 6 6 6 6 6 5 5 5 5 5 5 5 5 5 6 6 6 6 6 7 7 7 7 7 8 8 8 8 8 8 8 8 8 8 8 8 8 8 8 8 8 8 8 8 8 9 9 9 9 9 9 9 9 9 9 9 9 9 10 10 10 10 10 10 11 11 11 11 12 12 13 13 13 14 14 15 15 15 15 16 16 16
6 6 6 6 6 6 6 6 6 6 6 6 6 6 6 6 6 6 6 6 6 6 6 6 6 5 5 5 5 5 5 5 5 5 6 6 6 6 6 6 7 7 7 7 8 8 8 8 8 8 8 8 8 8 8 8 8 8 8 8 8 8 8 8 8 8 8 8 9 9 9 9 8 8 8 8 9 9 9 9 9 10 10 10 10 10 10 10 11 11 11 11 12 12 12 13 13 13 14 14 14 14 15
6 6 6 6 6 6 6 6 6 6 6 6 6 6 6 6 6 6 6 6 6 6 6 6 6 6 6 6 6 6 6 6 6 6 6 6 6 6 7 7 7 7 7 8 8 8 8 8 9 9 9 9 9 9 9 8 8 8 8 8 8 8 8 8 8 8 8 8 8 8 9 9 9 9 8 8 8 9 9 9 9 9 9 10 10 10 10 10 10 10 11 11 11 11 11 12 12 12 13 13 13 13 14
6 6 6 6 6 6 6 6 6 6 6 6 6 6 6 6 6 6 6 6 6 6 6 6 6 6 6 6 6 6 6 6 6 6 7 7 7 7 7 7 7 8 8 8 8 8 8 8 8 9 9 9 9 9 9 9 8 8 8 8 8 8 8 8 8 8 8 8 8 8 8 8 9 9 9 8 8 8 8 9 9 9 9 9 10 10 10 10 10 10 11 11 11 11 11 11 11 12 12 12 12 13 13
6 6 6 6 6 6 6 6 6 6 6 6 6 6 6 6 6 6 6 6 6 7 7 7 7 7 7 7 7 7 7 7 7 7 7 8 8 8 8 8 8 8 8 8 8 8 8 8 8 8 8 8 9 9 9 9 8 8 8 8 8 8 8 8 8 8 8 8 8 8 8 8 8 9 9 9 9 9 9 9 9 9 9 9 9 10 10 10 10 11 11 11 11 11 11 11 12 12 12 12 12 12 13
6 6 6 6 6 6 6 6 7 7 7 6 6 6 6 6 7 7 7 7 7 8 8 8 8 8 9 9 9 9 9 9 9 9 9 9 9 9 9 8 8 8 8 8 8 8 8 8 8 8 8 8 8 8 8 8 8 8 8 8 8 8 8 8 8 8 8 8 8 8 8 8 8 9 9 9 9 9 9 9 9 9 9 9 9 10 10 10 10 11 11 11 11 11 12 12 12 12 12 12 12 13 13
6 6 6 6 6 6 7 7 7 7 7 7 7 7 7 7 7 8 8 8 9 9 9 10 10 10 10 10 10 10 10 10 10 10 10 10 9 9 9 9 9 9 9 9 8 8 8 8 8 8 8 8 8 8 8 8 8 8 8 8 8 8 8 8 8 8 8 8 8 8 8 8 9 9 9 9 9 9 9 9 9 9 9 9 9 10 10 10 10 11 11 11 12 12 12 12 12 13 13 13 13 13 13
6 7 7 7 7 7 7 7 7 7 7 7 7 7 8 8 8 9 9 10 10 10 11 11 11 11 11 11 11 11 11 11 11 11 11 10 10 10 10 10 9 9 9 9 9 9 8 8 8 8 8 8 8 8 8 8 8 8 8 8 8 8 8 8 9 9 9 9 9 9 9 9 9 9 9 9 9 9 9 9 9 9 9 9 10 10 10 10 10 11 11 11 12 12 12 13 13 13 13 13 13 14 14
7 7 7 7 7 7 7 7 7 7 8 8 8 8 9 9 9 10 10 11 11 11 12 12 12 12 12 12 12 12 12 12 12 12 11 11 11 11 10 10 10 10 9 9 9 9 9 9 8 8 8 9 9 9 8 8 8 8 8 8 8 8 9 9 9 9 9 9 9 9 9 9 9 9 9 9 9 9 9 9 9 9 9 10 10 10 10 10 11 11 11 12 12 12 13 13 13 14 14 14 14 14 14
7 7 7 7 7 7 7 7 8 8 8 9 9 9 10 10 10 11 11 11 12 12 12 12 13 13 13 13 13 13 12 12 12 12 12 12 11 11 11 10 10 10 10 9 9 9 9 9 9 9 9 9 9 9 9 9 9 9 8 8 9 9 9 9 9 9 9 9 9 9 9 9 9 9 9 9 9 9 9 9 9 9 10 10 10 10 10 10 11 11 11 12 12 13 13 13 14 14 14 14 15 15 15
7 7 7 7 7 7 8 8 8 8 9 9 10 10 10 10 11 11 12 12 12 12 13 13 13 13 13 13 13 13 13 13 13 13 12 12 12 12 11 11 11 10 10 10 9 9 9 9 9 9 9 9 9 9 9 9 9 9 9 9 9 9 9 9 9 9 9 9 9 9 9 9 9 9 10 10 10 10 10 10 10 10 10 10 10 10 10 11 11 11 12 12 12 13 13 13 14 14 14 15 15 15 15
7 7 7 7 8 8 8 8 9 9 9 10 10 10 11 11 11 12 12 12 12 13 13 13 13 13 13 14 14 13 13 13 13 13 13 13 12 12 12 12 11 11 10 10 10 9 9 9 9 9 9 9 9 9 9 9 9 9 9 9 9 9 9 9 9 9 10 10 10 10 10 10 10 10 10 10 10 10 10 10 10 10 10 10 10 11 11 11 11 11 12 12 12 13 13 13 14 14 14 15 15 15 16
7 7 7 8 8 8 8 9 9 9 10 10 10 11 11 11 12 12 12 13 13 13 13 14 14 14 14 14 14 14 14 14 13 13 13 13 13 12 12 12 12 11 11 10 10 10 9 9 9 9 9 9 9 9 9 9 9 9 9 9 9 9 9 10 10 10 10 10 10 10 10 10 10 10 10 11 11 11 11 11 11 11 11 11 11 11 11 11 12 12 12 12 13 13 13 14 14 14 14 15 15 15 16
8 8 8 8 8 9 9 9 10 10 10 11 11 11 12 12 12 12 13 13 13 14 14 14 14 15 15 14 14 14 14 14 14 13 13 13 13 13 12 12 12 12 11 11 11 10 10 10 9 9 9 9 9 9 10 10 10 10 10 10 10 10 10 10 10 10 10 10 10 10 10 10 11 11 11 11 11 11 11 12 12 12 12 12 12 12 12 12 12 12 13 13 13 13 14 14 14 15 15 15 15 15 16
8 8 8 9 9 9 10 10 10 10 11 11 12 12 12 12 13 13 13 14 14 14 15 15 15 15 15 15 15 14 14 14 14 14 13 13 13 13 13 12 12 12 12 12 11 11 11 10 10 9 9 9 9 10 10 10 10 10 10 10 10 10 10 10 10 10 10 10 10 10 10 11 11 11 11 12 12 12 12 12 12 12 12 13 13 13 13 13 13 13 13 14 14 14 14 15 15 15 15 16 16 16 16
8 9 9 9 9 10 10 10 11 11 11 12 12 13 13 13 13 14 14 14 15 15 15 15 15 15 15 15 15 15 14 14 14 14 13 13 13 13 13 13 12 12 12 12 12 11 11 11 10 10 9 9 9 10 10 10 10 10 10 10 10 10 10 10 10 10 10 10 10 10 11 11 11 11 12 12 12 12 12 13 13 13 13 13 13 13 13 14 14 14 14 14 14 15 15 15 16 16 16 16 16 16 16
9 9 9 10 10 10 10 11 11 12 12 12 13 13 13 14 14 14 14 15 15 15 15 15 15 15 15 15 15 15 15 14 14 14 14 13 13 13 12 12 12 12 12 12 12 12 12 11 11 11 10 9 9 10 10 10 10 11 11 11 11 11 11 10 10 10 10 10 10 10 11 11 11 11 12 12 12 12 12 13 13 13 13 14 14 14 14 14 14 14 15 15 15 15 15 15 16 16 16 16 16 16 16
10 10 10 10 10 11 11 12 12 12 13 13 13 14 14 14 14 14 15 15 16 16 16 16 16 16 15 15 15 15 15 15 14 14 14 13 13 13 13 12 12 12 13 13 13 13 13 12 12 12 11 10 10 10 10 10 11 11 11 11 11 11 11 11 11 11 11 11 11 11 11 11 11 11 12 12 12 12 12 13 13 13 13 14 14 14 14 14 14 14 15 15 15 15 15 15 15 15 15 15 14 14 14
10 10 10 11 11 11 12 12 13 13 13 13 14 14 14 14 15 15 15 16 16 16 16 16 16 16 16 16 15 15 15 15 15 14 14 14 13 13 13 13 12 12 12 13 13 13 13 13 13 13 12 11 10 10 10 11 11 11 11 11 11 11 11 11 11 11 11 11 11 11 11 11 11 12 12 12 12 12 12 12 13 13 13 13 13 13 13 13 14 14 14 14 14 14 14 13 13 13 13 12 12 12 11
11 11 11 11 12 12 13 13 13 14 14 14 14 14 15 15 15 15 15 16 16 16 17 16 16 16 16 16 16 16 16 15 15 15 14 14 14 13 13 13 13 13 13 13 13 13 13 14 14 14 13 13 12 11 10 11 11 11 12 12 12 12 12 12 12 12 12 12 12 12 11 12 12 12 12 12 12 12 12 12 12 12 12 12 12 12 12 12 12 12 12 12 12 12 12 11 11 11 10 10 10 9 9
11 12 12 12 13 13 13 14 14 14 14 14 14 15 15 15 15 15 16 16 16 17 17 17 17 17 17 16 16 16 16 16 16 15 15 15 14 14 14 13 13 13 13 13 13 13 14 14 14 15 15 14 14 13 12 11 11 12 12 12 12 12 12 12 12 12 12 12 12 12 12 12 12 12 12 12 12 12 12 12 12 12 12 12 12 12 12 11 11 11 11 11 11 10 10 10 10 9 9 9 8 8 7
12 12 13 13 13 14 14 14 14 14 15 15 15 15 15 15 15 16 16 16 17 17 17 17 17 17 17 17 17 17 16 16 16 16 15 15 15 15 14 14 14 14 14 14 14 14 14 14 15 15 15 15 15 14 14 13 12 12 12 13 13 13 13 13 13 13 13 13 13 13 13 13 13 13 13 13 13 13 13 13 12 12 12 12 12 12 11 11 11 11 11 10 10 10 10 10 9 9 9 8 8 7 7
Wind_Speed
6 6 6 6 6 6 6 6 6 6 6 6 6 5 5 5 5 5 5 5 5 5 5 5 5 5 5 5 5 5 6 6 6 6 6 5 5 5 5 5 5 6 8 10 13 16 20 24 27 30 33 35 36 38 38 39 39 40 40 40 40 39 38 38 38 37 37 37 36 36 35 35 34 34 33 33 32 32 33 34 34 34 33 32 31 31 30 29 29 29 29 30 30 30 30 30 30 29 29 29 29 29 29
6 6 6 6 6 6 7 7 7 7 7 6 6 6 6 6 6 5 5 5 5 5 5 5 5 5 5 6 6 6 6 6 6 6 6 6 6 6 6 6 6 6 6 7 8 11 14 17 21 25 29 32 34 36 38 39 39 40 40 41 41 40 40 40 39 39 38 38 38 37 37 36 36 35 35 34 33 33 33 34 34 35 35 34 33 33 32 31 31 30 30 30 30 31 31 31 31 31 30 30 30 30 29
7 7 7 7 7 7 7 7 7 7 7 7 7 7 7 7 7 6 6 6 6 6 6 6 6 6 6 6 6 6 6 6 6 7 7 7 7 6 6 6 6 6 6 6 6 7 9 11 15 19 23 27 30 33 36 38 39 40 41 41 41 41 41 41 41 40 40 39 39 39 38 38 38 37 36 35 34 34 34 34 34 35 35 35 35 34 34 34 33 33 32 31 31 31 31 31 32 32 31 31 31 31 31
7 8 8 8 8 8 8 8 8 8 8 8 8 8 8 8 8 7 7 7 7 7 6 6 6 6 6 6 6 6 6 7 7 7 7 7 7 7 7 7 7 7 7 7 7 7 7 8 10 12 16 20 24 28 31 34 37 39 40 41 41 42 42 42 41 41 41 41 41 40 40 40 40 40 39 38 36 35 35 34 34 35 35 35 35 35 35 35 35 35 35 34 33 32 32 31 31 32 32 32 32 32 32
8 8 8 8 8 9 9 9 9 9 9 9 9 9 9 9 9 8 8 8 8 8 7 7 7 7 7 7 7 7 7 7 7 7 7 8 8 8 8 8 8 8 8 8 8 8 8 8 8 9 11 13 17 21 25 29 32 35 38 39 40 41 42 42 42 42 42 42 42 42 42 42 42 42 41 40 39 38 37 36 35 35 35 35 35 36 36 36 37 37 37 36 35 34 33 32 32 31 32 32 33 33 33
8 8 8 9 9 9 9 9 9 9 9 10 10 10 10 10 9 9 9 9 9 9 8 8 8 8 8 7 7 7 7 7 7 8 8 8 8 8 8 8 8 8 8 9 9 9 9 8 8 8 9 10 12 14 18 22 26 30 33 36 38 39 41 41 42 42 43 43 43 44 44 44 43 43 43 42 42 41 40 38 37 36 36 35 35 36 36 37 37 38 38 38 38 37 36 35 34 33 33 33 33 34 34
9 9 9 9 9 9 10 10 10 10 10 10 10 10 10 10 10 10 10 10 10 10 10 9 9 9 9 8 8 8 8 8 8 8 8 8 8 9 9 9 9 9 9 9 9 9 9 9 9 9 9 9 9 10 12 15 19 23 26 30 33 36 38 40 41 42 43 43 44 45 45 45 45 45 44 44 44 43 42 41 40 39 38 37 36 36 36 37 38 38 39 39 39 39 38 37 36 35 35 34 34 34 34
10 9 10 10 10 10 10 10 10 11 11 11 11 11 11 11 11 11 11 11 11 11 11 11 10 10 10 10 9 9 9 9 9 9 9 9 9 9 9 9 9 9 9 9 10 10 10 10 10 10 10 10 10 10 10 11 13 16 19 22 26 30 33 36 39 40 42 43 44 45 45 45 45 45 45 45 45 44 44 43 42 41 41 40 39 38 37 38 38 39 39 39 39 39 39 39 39 38 37 37 36 36 35
10 10 10 10 10 10 10 11 11 11 11 11 12 12 12 12 12 12 12 12 12 12 12 12 11 11 11 11 11 10 10 10 10 10 10 10 10 10 10 10 10 9 9 10 10 10 10 11 11 11 11 11 11 11 10 10 11 12 13 16 19 23 27 31 34 37 39 42 43 44 45 46 46 46 46 45 45 45 44 44 43 43 43 42 41 40 40 39 39 39 39 40 40 40 40 40 40 40 40 39 39 38 37
11 11 11 11 11 11 11 11 11 11 12 12 12 12 12 13 13 13 13 13 13 13 13 13 13 12 12 12 12 12 11 11 11 11 11 11 11 10 10 10 10 10 10 10 10 10 11 11 11 11 12 12 12 12 11 11 11 11 11 12 14 17 20 24 28 32 35 38 41 43 44 45 46 46 46 46 46 46 45 45 44 44 43 43 43 42 42 42 42 41 41 41 41 40 40 41 41 41 41 41 41 40 40
12 12 12 12 12 12 12 12 12 12 12 12 13 13 13 13 13 13 13 14 14 14 14 14 14 13 13 13 13 13 13 13 12 12 12 12 12 12 11 11 11 11 11 11 11 11 11 11 11 12 12 12 12 12 12 12 12 12 11 11 12 13 15 18 22 25 29 33 36 39 42 44 45 46 46 46 46 47 47 46 45 45 44 44 43 43 43 44 44 44 44 43 42 42 42 42 42 42 42 42 42 42 41
13 13 13 13 12 12 12 12 12 12 12 13 13 13 13 13 14 14 14 14 14 14 14 14 14 14 14 14 14 14 14 14 14 13 13 13 13 13 13 13 13 12 12 12 12 12 12 12 12 12 12 12 13 13 13 13 13 13 13 13 13 13 13 15 17 19 23 26 30 34 37 40 42 43 45 46 46 47 47 47 47 46 46 45 45 44 44 45 45 46 46 45 45 44 44 43 43 43 43 43 43 43 43
14 13 13 13 13 13 13 13 13 13 13 13 13 13 14 14 14 14 14 15 15 15 15 15 15 15 15 15 15 15 15 15 15 15 15 15 15 14 14 14 14 14 14 13 13 13 13 13 12 12 12 13 13 13 13 13 14 14 14 14 14 14 14 14 15 16 17 20 23 27 30 34 37 39 42 43 45 46 47 47 48 48 48 47 47 46 46 46 47 47 47 47 47 46 46 45 45 44 44 44 43 43 43
14 14 14 14 14 14 14 14 13 13 13 13 13 14 14 14 14 14 15 15 15 15 16 16 16 16 16 16 16 16 16 16 16 16 16 16 16 16 16 16 15 15 15 15 15 15 14 14 14 14 14 13 13 13 14 14 14 14 14 15 15 15 15 15 15 15 16 16 18 20 23 27 30 33 36 39 42 44 45 47 47 48 48 48 48 48 48 48 48 48 48 48 48 48 47 47 46 46 45 45 45 44 44
15 15 14 14 14 14 14 14 14 14 14 14 14 14 14 14 14 14 15 15 15 15 16 16 16 16 17 17 17 17 17 17 17 17 17 17 17 17 17 17 17 17 17 17 16 16 16 16 16 15 15 15 15 15 14 14 15 15 15 15 15 16 16 16 16 16 16 16 16 17 19 21 23 26 30 33 36 39 42 44 45 47 48 48 49 49 49 50 50 50 49 49 49 49 48 47 47 47 47 46 46 45 45
15 15 15 15 15 15 15 14 14 14 14 14 14 14 14 14 14 15 15 15 15 16 16 16 16 17 17 17 17 17 18 18 18 18 18 18 18 18 18 18 18 18 18 18 18 18 18 18 18 17 17 17 17 16 16 16 16 16 16 16 16 16 17 17 17 17 17 17 17 17 17 18 19 21 24 27 30 33 36 39 42 44 46 47 48 49 50 51 51 51 50 50 50 50 49 48 47 47 48 48 47 47 46
15 15 15 15 15 15 15 15 15 15 15 15 14 14 14 14 14 15 15 15 15 15 16 16 16 17 17 17 17 18 18 18 18 19 19 19 19 19 19 19 19 19 19 19 19 19 19 19 19 19 19 19 19 18 18 18 17 17 17 17 17 17 17 18 18 18 18 18 18 18 18 18 18 19 20 22 24 27 30 33 37 39 42 44 46 47 49 50 51 51 51 51 51 51 50 49 48 49 49 49 49 48 48
16 16 15 15 15 15 15 15 15 15 15 15 15 15 15 15 15 15 15 15 15 15 16 16 16 17 17 17 18 18 18 18 19 19 19 19 20 20 20 20 20 21 21 21 21 21 21 21 21 21 21 21 20 20 20 20 20 19 19 19 19 19 19 19 19 19 19 19 19 19 19 19 19 19 19 20 21 23 25 28 31 34 37 40 42 44 46 48 49 50 51 51 52 52 50 49 49 50 50 50 50 49 49
16 16 16 16 16 16 15 15 15 15 15 15 15 15 15 15 15 15 15 15 15 16 16 16 16 17 17 17 17 18 18 18 19 19 20 20 20 20 21 21 21 21 22 22 22 22 22 22 22 22 22 22 22 22 22 22 22 21 21 21 21 21 20 20 20 20 20 20 20 20 20 20 20 20 20 20 21 21 22 24 26 28 31 34 37 39 42 44 46 47 49 50 51 51 50 49 49 50 50 50 50 50 50
16 16 16 16 16 16 16 16 16 16 16 16 16 16 15 15 16 16 16 16 16 16 16 16 17 17 17 17 18 18 18 19 19 19 20 20 20 21 21 21 22 22 22 23 23 23 23 23 23 24 24 24 24 24 24 23 23 23 23 23 23 23 23 22 22 22 22 22 22 22 21 21 22 22 22 22 22 22 22 23 24 25 27 29 31 34 36 39 41 43 45 47 48 49 50 50 50 51 50 50 50 50 50
16 16 16 16 16 16 16 16 16 16 16 16 16 16 16 16 16 16 16 16 16 16 17 17 17 17 17 18 18 18 19 19 19 20 20 20 20 21 21 22 22 22 23 23 23 24 24 24 24 25 25 25 25 25 25 25 25 25 25 25 25 25 24 24 24 24 24 24 24 23 23 23 23 23 23 23 23 23 23 23 24 24 25 26 27 29 31 33 36 38 40 42 44 46 47 49 50 50 50 50 49 49 49
16 16 16 16 16 16 16 16 16 16 16 16 16 16 16 16 16 16 16 17 17 17 17 17 17 18 18 18 18 19 19 19 20 20 20 21 21 21 21 22 22 23 23 24 24 24 24 25 25 25 26 26 26 26 26 26 26 26 26 26 26 26 26 26 26 26 26 26 26 26 25 25 25 25 24 24 24 24 24 24 25 25 25 25 26 27 28 29 31 33 35 37 39 41 43 45 47 47 48 49 49 49 48
17 16 16 16 16 16 16 16 16 16 16 16 16 16 17 17 17 17 17 17 17 17 17 18 18 18 18 18 19 19 20 20 20 20 21 21 21 22 22 22 22 23 24 24 24 25 25 25 26 26 26 27 27 27 27 27 27 27 28 28 28 28 28 28 28 28 28 28 28 28 27 27 27 27 26 26 26 26 26 26 26 26 26 26 27 27 27 28 28 29 31 32 34 36 39 41 42 44 45 46 46 47 46
17 17 17 16 16 16 16 16 16 16 16 17 17 17 17 17 17 17 17 17 17 18 18 18 18 18 19 19 19 20 20 20 21 21 21 22 22 22 23 23 23 23 24 24 25 25 26 26 26 26 27 27 27 28 28 28 28 28 29 29 29 29 29 29 29 29 29 29 29 29 29 29 29 29 29 28 28 28 28 28 28 28 28 28 28 28 28 28 28 29 29 30 31 32 34 36 38 40 41 42 43 44 44
17 17 17 17 17 17 17 16 17 17 17 17 17 17 17 17 17 17 18 18 18 18 18 18 19 19 19 19 20 20 20 21 21 21 22 22 23 23 23 23 24 24 24 25 25 26 26 26 27 27 27 28 28 28 29 29 29 29 29 30 30 30 30 30 30 30 31 31 31 31 31 31 31 31 30 30 30 30 30 29 29 29 29 29 29 30 30 30 30 30 30 30 30 31 31 33 34 36 37 39 41 42 43
17 17 17 17 17 17 17 17 17 17 17 17 17 17 17 18 18 18 18 18 18 18 19 19 19 19 20 20 20 20 21 21 21 22 22 23 23 23 24 24 24 24 25 25 25 26 27 27 27 27 28 28 28 29 29 29 29 30 30 30 31 31 31 31 31 31 32 32 32 32 32 32 32 32 32 32 32 32 31 31 31 31 31 31 31 31 31 31 31 31 31 31 31 31 31 32 32 33 34 36 37 39 41
17 17 17 17 17 17 17 17 17 17 17 18 18 18 18 18 18 18 19 19 19 19 19 19 20 20 20 20 21 21 21 21 22 22 23 23 23 24 24 24 25 25 25 25 26 26 27 27 28 28 28 29 29 29 29 30 30 30 31 31 31 32 32 32 32 32 32 33 33 33 33 33 33 33 33 33 33 33 33 33 33 33 33 33 33 33 33 33 33 33 33 33 33 33 33 33 33 33 33 34 35 36 37
17 17 17 17 17 17 17 17 18 18 18 18 18 18 18 19 19 19 19 19 19 20 20 20 20 20 21 21 21 21 22 22 22 23 23 23 24 24 24 25 25 25 26 26 26 26 27 27 28 28 29 29 29 29 30 30 30 31 31 32 32 32 32 33 33 33 33 33 34 34 34 34 34 34 34 34 34 34 34 34 34 34 34 34 34 34 34 34 34 34 34 34 34 34 34 34 34 34 35 35 35 35 36
18 18 18 18 18 18 18 18 18 18 18 18 19 19 19 19 19 19 20 20 20 20 20 21 21 21 21 21 22 22 22 22 23 23 23 24 24 24 25 25 25 26 26 26 26 27 27 28 28 28 29 29 29 30 30 30 31 31 32 32 32 33 33 33 34 34 34 34 34 34 35 35 35 35 35 35 35 35 35 35 35 35 35 35 35 35 35 35 35 35 35 35 36 36 36 36 36 36 36 36 36 36 36
18 18 18 18 18 18 18 18 19 19 19 19 19 19 20 20 20 20 20 20 20 21 21 21 21 21 22 22 22 22 22 23 23 23 24 24 24 25 25 25 26 26 26 27 27 27 27 28 28 29 29 29 30 30 30 30 31 31 32 32 33 33 33 34 34 34 35 35 35 35 35 35 36 36 36 36 36 36 36 36 36 36 36 36 36 37 37 37 37 37 37 37 37 37 37 37 37 38 38 38 38 38 38
18 18 18 19 19 19 19 19 19 19 19 19 20 20 20 20 20 20 20 21 21 21 21 21 21 22 22 22 22 22 22 23 23 23 24 24 24 25 25 25 26 26 26 27 27 27 28 28 28 29 29 30 30 30 30 31 31 32 32 32 33 33 34 34 34 35 35 35 35 36 36 36 36 36 37 37 37 37 37 37 37 37 37 37 37 37 38 38 38 38 38 38 38 38 38 38 39 39 39 39 39 39 40
19 19 19 19 19 19 19 19 20 20 20 20 20 20 20 20 20 20 21 21 21 21 21 21 22 22 22 22 22 22 23 23 23 23 23 24 24 25 25 25 26 26 26 26 27 27 27 28 28 29 29 30 30 30 31 31 31 32 32 33 33 33 34 34 34 35 35 35 36 36 36 36 37 37 37 37 38 38 38 38 38 38 38 38 38 38 38 39 39 39 39 39 39 39 40 40 40 40 40 40 40 41 41
19 20 20 20 20 20 20 20 20 20 20 20 20 20 20 20 20 21 21 21 21 21 21 22 22 22 22 22 22 22 22 23 23 23 23 23 24 24 25 25 25 26 26 26 27 27 27 28 28 28 29 29 30 30 30 31 32 32 32 33 33 33 34 34 35 35 35 35 36 36 36 37 37 37 38 38 38 38 39 39 39 39 39 39 39 39 39 39 39 40 40 40 40 40 40 41 41 41 41 42 42 42 42
20 20 20 20 20 20 20 20 20 20 20 20 20 20 20 20 20 21 21 21 21 21 21 22 22 22 22 22 22 22 22 22 23 23 23 23 23 24 24 25 25 25 26 26 26 27 27 27 28 28 28 29 29 30 30 31 31 32 32 33 33 33 34 34 35 35 35 35 36 36 36 37 37 38 38 38 39 39 39 39 40 40 40 40 40 40 40 40 40 40 40 40 41 41 41 41 42 42 42 42 43 43 43
21 21 21 21 21 21 20 20 20 20 20 20 20 20 20 20 21 21 21 21 21 21 21 22 22 22 22 22 22 22 22 22 22 23 23 23 23 24 24 24 25 25 25 26 26 26 27 27 27 28 28 28 29 29 30 30 31 31 32 32 33 33 33 34 34 35 35 35 36 36 36 37 37 38 38 38 39 39 39 40 40 40 41 41 41 41 41 41 41 41 41 41 41 42 42 42 42 43 43 43 43 44 44
21 21 21 21 21 21 20 20 20 20 20 20 20 20 20 20 20 21 21 21 21 21 22 22 22 22 22 22 22 22 22 22 23 23 23 23 23 23 24 24 25 25 25 25 26 26 26 27 27 27 28 28 28 29 29 30 30 31 31 32 32 33 33 33 34 34 35 35 35 36 36 37 37 37 38 38 39 39 40 40 40 41 41 41 41 42 42 42 42 42 42 42 42 42 42 43 43 43 43 44 44 44 44
21 21 21 21 21 20 20 20 20 20 20 20 20 20 20 20 20 21 21 21 21 22 22 22 22 22 22 22 23 23 23 23 23 23 23 23 23 23 24 24 25 25 25 25 26 26 26 26 27 27 28 28 28 29 29 30 30 31 31 32 32 32 33 33 33 34 34 34 35 35 36 36 37 37 38 38 39 39 39 40 40 41 41 41 42 42 42 42 43 43 43 43 43 43 43 43 43 44 44 44 44 45 45
21 21 21 21 21 20 20 20 20 20 20 20 20 20 20 20 20 21 21 21 22 22 22 22 23 23 23 23 23 23 23 23 23 23 23 23 24 24 24 24 25 25 25 25 26 26 26 26 27 27 28 28 28 29 29 30 31 31 31 32 32 32 33 33 33 33 34 34 34 35 35 36 36 37 37 38 38 39 39 40 40 40 41 41 42 42 42 42 43 43 43 43 44 44 44 44 44 44 44 45 45 45 45
21 21 21 21 20 20 20 20 20 20 20 20 20 20 20 20 21 21 21 21 22 22 22 23 23 23 24 24 24 24 24 24 24 24 24 24 24 24 24 25 25 25 25 25 26 26 26 27 27 27 28 28 28 29 30 30 31 31 32 32 32 32 33 33 33 33 34 34 34 35 35 35 36 36 37 37 38 38 38 39 40 40 40 41 41 42 42 42 43 43 43 44 44 44 44 44 45 45 45 45 45 45 46
21 21 20 20 20 20 20 20 20 20 20 20 20 20 20 21 21 21 21 22 22 22 23 23 24 24 24 24 25 25 25 25 25 25 25 25 25 25 25 25 25 25 26 26 26 26 26 27 27 27 28 28 29 29 30 31 31 32 32 32 33 33 33 33 33 34 34 34 34 35 35 35 36 36 36 37 37 37 38 38 39 39 40 40 41 41 42 42 42 43 43 43 44 44 44 44 45 45 45 45 46 46 46
21 21 20 20 20 20 20 20 20 20 20 20 20 21 21 21 21 21 22 22 22 23 23 24 24 24 25 25 25 25 25 25 25 25 25 25 25 25 25 25 26 26 26 26 26 26 27 27 27 28 28 29 29 30 31 31 32 32 33 33 33 33 33 33 34 34 34 34 35 35 35 36 36 36 36 36 37 37 37 38 38 39 39 40 40 41 41 42 42 42 43 43 44 44 44 44 45 45 45 46 46 46 46
21 21 20 20 20 20 20 20 20 20 21 21 21 21 21 21 21 22 22 22 23 23 24 24 25 25 26 26 26 26 26 26 26 26 26 26 26 26 26 26 26 26 26 27 27 27 27 27 28 28 29 29 30 31 31 32 33 33 34 34 34 34 34 34 34 34 35 35 35 35 36 36 36 36 36 37 37 37 37 38 38 38 39 39 40 40 41 41 42 42 42 43 43 44 44 44 45 45 45 45 46 46 46
21 21 21 21 20 21 21 21 21 21 21 21 21 21 22 22 22 22 23 23 23 24 24 25 25 26 26 26 27 27 27 27 27 27 27 27 27 26 26 26 27 27 27 27 27 27 28 28 28 29 29 30 30 31 32 33 33 34 34 35 35 35 35 35 35 35 35 35 35 36 36 36 36 37 37 37 37 38 38 38 38 38 39 39 39 40 40 40 41 41 42 42 43 43 44 44 44 45 45 45 45 46 46
21 21 21 21 21 21 21 21 21 21 21 22 22 22 22 22 23 23 23 23 24 24 25 25 26 26 27 27 27 28 28 28 28 28 28 28 28 28 27 27 27 28 28 28 28 28 28 29 29 29 30 30 31 32 32 33 34 34 35 35 35 35 36 36 36 36 36 36 36 36 36 36 37 37 37 38 38 38 38 38 38 39 39 39 39 39 40 40 40 41 41 42 42 42 43 43 44 44 45 45 45 45 46
21 21 21 22 21 21 22 22 22 22 22 22 22 22 23 23 23 23 24 24 24 25 25 26 26 27 27 28 28 28 29 29 29 29 29 29 29 29 29 29 29 29 29 29 29 29 29 30 30 30 31 31 32 32 33 33 34 34 35 35 35 35 36 36 36 36 36 36 36 36 36 37 37 37 37 38 38 38 39 39 39 39 39 39 39 39 40 40 40 40 41 41 41 42 42 43 43 44 44 44 45 45 45
22 22 22 22 22 22 22 22 22 22 22 23 23 23 23 23 23 24 24 24 25 25 26 26 27 27 28 28 29 29 29 30 30 30 30 30 30 30 30 30 30 30 30 30 30 30 30 31 31 31 31 32 32 33 33 34 34 34 34 35 35 35 35 35 36 36 36 36 36 36 36 37 37 37 37 38 38 39 39 39 39 39 40 40 40 40 40 40 40 40 40 41 41 41 42 42 42 43 43 44 44 44 45
22 22 22 22 23 23 23 23 23 23 23 23 23 23 23 24 24 24 24 25 25 26 26 26 27 27 28 28 29 29 30 30 30 30 31 31 31 31 31 31 31 31 31 31 31 31 31 32 32 32 32 33 33 33 34 34 34 34 34 34 35 35 35 35 35 35 36 36 36 36 36 36 37 37 37 38 38 38 39 39 39 40 40 40 40 40 40 40 40 40 40 41 41 41 41 42 42 42 43 43 44 44 44
23 23 23 23 23 23 23 23 23 23 23 23 24 24 24 24 24 24 25 25 26 26 26 27 27 28 28 29 29 30 30 30 31 31 31 31 32 32 32 32 32 32 32 32 32 32 32 33 33 33 33 33 34 34 34 34 34 34 34 34 34 34 34 35 35 35 35 35 35 36 36 36 36 37 37 37 38 38 39 39 39 40 40 40 40 40 40 40 40 40 40 41 41 41 41 41 42 42 42 43 43 43 44
23 23 23 23 23 24 24 24 24 24 24 24 24 24 24 25 25 25 25 26 26 26 27 27 27 28 28 29 29 30 30 30 31 31 31 32 32 33 33 33 33 33 33 33 33 34 34 34 33 33 33 34 34 34 34 34 34 34 34 34 34 34 34 34 34 34 35 35 35 35 35 36 36 36 37 37 37 38 38 39 39 40 40 40 40 40 40 40 40 41 41 41 41 41 41 42 42 42 42 43 43 43 44
24 24 24 24 24 24 24 24 24 24 24 24 24 25 25 25 25 26 26 26 27 27 27 27 28 28 28 29 29 30 30 30 31 31 32 32 32 33 33 34 34 34 34 35 35 35 35 35 34 34 34 34 34 35 35 35 35 34 34 34 34 34 34 34 34 34 34 34 35 35 35 35 35 36 36 37 37 37 38 38 39 39 40 40 40 40 40 41 41 41 41 41 41 41 41 42 42 42 42 43 43 43 43
24 24 24 24 24 24 24 24 24 24 24 25 25 25 25 26 26 26 26 27 27 27 27 28 28 28 29 29 29 29 30 30 31 31 32 32 32 33 33 34 35 35 35 36 36 36 36 36 36 35 35 35 35 35 35 35 35 35 34 34 34 33 33 33 34 34 34 34 34 34 35 35 35 35 36 36 36 37 37 38 38 39 39 40 40 40 40 41 41 41 41 41 41 41 42 42 42 42 43 43 43 43 44
25 24 24 24 24 24 24 24 24 25 25 25 25 25 26 26 26 27 27 27 27 28 28 28 28 28 29 29 29 30 30 30 31 31 31 32 32 33 34 34 35 35 36 36 37 37 37 37 37 37 36 35 35 35 35 35 35 35 34 34 34 33 33 33 33 33 33 34 34 34 34 35 35 35 35 36 36 36 37 37 38 38 39 39 39 40 40 40 41 41 41 41 41 42 42 42 42 43 43 43 43 44 44
25 25 25 25 25 25 25 25 25 25 25 25 26 26 26 26 27 27 27 27 28 28 28 28 28 28 29 29 29 30 30 31 31 31 32 32 32 33 34 34 35 35 36 36 37 37 38 39 39 38 37 36 36 35 35 35 35 35 34 34 34 33 33 33 33 33 33 33 34 34 34 34 35 35 35 35 36 36 37 37 37 38 38 39 39 39 40 40 40 41 41 41 42 42 42 42 43 43 43 44 44 44 44
25 25 25 25 25 25 25 25 25 25 25 26 26 26 26 27 27 27 27 27 28 28 28 28 29 29 29 29 29 30 30 31 31 31 32 32 33 33 33 34 35 35 36 36 37 37 38 39 39 39 38 37 37 36 36 35 35 35 34 34 34 33 33 33 33 33 33 33 33 33 34 34 34 35 35 35 35 36 36 37 37 37 38 38 39 39 39 40 40 41 41 41 42 42 42 43 43 43 43 44 44 44 45
26 26 25 25 25 25 25 25 25 25 26 26 26 27 27 27 27 27 27 28 28 28 28 29 29 29 29 29 29 30 30 31 31 32 32 33 33 33 33 34 34 35 36 36 37 37 37 38 39 39 39 38 37 36 36 35 35 35 34 34 34 33 33 33 33 33 33 33 33 33 33 34 34 34 35 35 35 36 36 36 37 37 38 38 38 39 39 40 40 41 41 41 42 42 42 43 43 43 44 44 44 45 45
26 26 26 26 25 25 25 25 25 25 26 26 26 27 27 27 27 27 27 28 28 28 29 29 29 29 29 29 30 30 30 31 31 32 32 33 33 33 33 34 34 34 34 35 35 36 37 37 38 38 39 38 38 37 36 35 35 35 34 34 34 33 33 33 33 33 33 33 33 33 34 34 34 34 35 35 35 36 36 36 37 37 38 38 38 39 39 40 40 41 41 42 42 42 43 43 44 44 44 45 45 45 46
26 26 26 26 26 25 25 25 25 26 26 26 27 27 27 27 28 28 28 28 28 28 29 29 29 29 30 30 30 30 30 31 31 32 32 33 33 33 33 34 34 34 34 34 34 35 36 36 37 37 38 38 38 37 36 35 35 34 34 34 34 34 33 33 33 33 33 33 33 34 34 34 34 35 35 35 36 36 36 37 37 37 38 38 39 39 39 40 40 41 41 42 42 43 43 44 44 45 45 45 46 46 47
26 26 26 26 26 25 25 25 26 26 26 27 27 27 27 28 28 28 28 28 28 28 29 29 29 30 30 30 30 30 30 31 31 32 32 32 33 33 33 33 34 34 34 34 34 34 34 35 35 36 37 38 38 37 36 35 35 34 34 34 34 34 34 34 34 34 34 34 34 34 34 35 35 35 36 36 36 37 37 37 37 38 38 39 39 39 40 40 41 41 42 42 42 43 44 44 45 45 46 46 47 47 47
26 26 26 26 26 25 25 26 26 26 27 27 27 27 28 28 28 28 28 28 28 29 29 29 30 30 30 30 30 30 30 31 31 31 32 32 32 33 33 33 33 33 34 34 34 34 34 34 34 35 35 36 37 37 37 36 35 34 34 34 34 34 34 34 34 34 34 34 35 35 35 35 36 36 36 37 37 37 38 38 38 39 39 39 40 40 41 41 41 42 42 43 43 44 44 45 45 46 46 47 47 48 48
26 26 26 26 26 25 26 26 26 27 27 27 27 28 28 28 28 29 29 29 29 29 29 30 30 30 30 30 30 30 30 31 31 31 31 32 32 32 33 33 33 33 33 33 33 34 34 34 34 34 34 35 36 37 37 36 36 35 35 35 35 35 35 35 35 35 35 35 36 36 36 37 37 37 37 38 38 39 39 39 40 40 40 41 41 41 42 42 42 43 43 43 44 44 45 45 46 47 47 48 48 49 49
26 26 26 26 26 26 26 26 26 27 27 28 28 28 28 29 29 29 29 29 29 30 30 30 30 31 31 31 31 31 31 31 31 31 31 31 32 32 33 33 33 33 33 33 33 33 33 34 34 34 34 35 35 36 36 37 36 36 35 35 35 35 35 35 35 36 36 36 36 37 37 38 38 38 39 39 40 40 40 41 41 41 42 42 42 43 43 43 44 44 44 45 45 46 46 47 47 48 48 49 50 50 51
Wind_Direction
280 280 281 282 284 285 286 286 287 289 289 289 289 288 288 287 287 286 283 283 282 281 279 279 278 278 277 275 274 274 273 273 272 271 269 265 261 258 257 255 253 248 245 244 242 241 241 240 240 240 240 240 240 240 240 240 240 241 241 241 241 241 241 241 241 240 241 241 242 242 241 241 240 240 240 240 240 241 242 243 244 244 244 244 244 245 245 245 244 244 243 242 242 241 241 241 241 240 240 239 239 238 237
280 279 279 279 280 281 281 283 283 283 284 284 285 285 284 284 283 283 282 281 280 279 278 276 276 275 274 274 273 272 272 272 272 272 271 268 265 263 261 260 258 255 253 250 248 246 244 243 242 241 241 241 241 241 241 241 241 241 241 242 242 242 242 242 242 241 241 241 242 242 242 242 241 242 242 241 241 241 242 243 243 244 244 244 244 245 246 246 246 245 245 244 243 243 242 242 242 242 241 241 241 240 239
281 280 279 278 278 279 279 280 280 281 282 282 282 282 282 282 281 281 280 280 278 278 276 276 275 274 274 272 272 271 271 270 271 271 271 269 267 265 264 263 262 261 259 257 255 253 250 247 245 244 243 242 242 242 242 242 242 242 242 242 242 242 242 242 242 242 242 242 242 243 243 243 242 242 242 242 242 242 242 242 242 243 243 244 244 245 245 246 246 246 245 245 244 244 243 243 243 243 243 243 243 242 242
282 281 280 279 278 278 278 278 279 279 280 281 281 281 281 281 281 280 280 279 278 277 276 275 275 274 274 273 272 271 271 270 269 269 269 269 268 267 266 264 264 264 262 261 260 258 257 255 252 249 247 246 244 244 244 243 243 243 243 243 243 243 243 243 243 243 243 243 243 243 244 244 243 243 242 242 242 242 242 242 242 242 242 243 243 243 244 245 245 246 246 245 245 245 244 244 244 244 244 244 244 243 243
283 282 281 280 280 279 279 279 279 279 279 280 280 281 281 281 280 280 280 279 278 278 276 276 275 274 273 273 273 272 272 271 270 269 269 268 268 267 266 265 265 265 264 263 263 261 261 260 258 256 254 251 249 247 246 245 245 244 244 244 244 244 244 244 244 244 244 244 244 244 244 244 245 244 244 243 242 242 242 242 242 242 242 242 242 242 243 243 244 245 245 245 245 245 245 245 245 245 245 245 244 244 244
284 283 283 282 281 281 280 279 279 279 279 279 280 280 280 280 280 280 280 280 278 278 277 276 276 274 274 273 273 272 272 272 272 272 271 270 269 268 267 266 265 265 265 265 265 263 262 262 262 262 261 259 255 253 251 249 248 246 246 245 245 245 245 245 244 244 244 244 244 244 244 245 245 245 245 245 244 244 243 243 243 243 243 242 242 241 241 242 243 243 244 244 244 244 245 245 245 245 245 245 245 245 244
284 284 283 283 282 282 281 280 280 279 278 278 278 279 279 279 279 280 280 280 279 279 278 277 276 275 274 273 273 273 273 273 273 273 272 272 271 271 269 268 267 265 265 266 266 266 265 264 263 262 263 263 262 260 257 255 252 250 249 248 247 247 246 245 245 245 245 245 245 244 244 244 245 245 246 246 246 245 245 244 244 244 244 243 242 242 241 241 241 242 243 243 243 244 244 244 244 245 245 245 245 245 245
282 283 283 282 282 282 281 281 280 279 279 278 278 278 278 278 278 279 279 279 278 278 278 277 276 276 275 274 272 273 272 272 272 273 273 273 273 273 273 271 269 267 266 266 266 266 266 266 265 264 264 264 264 264 264 262 259 256 253 251 250 249 248 247 246 245 245 245 245 245 244 244 244 245 245 246 246 246 246 245 245 245 244 244 244 243 243 242 242 242 242 242 243 243 243 243 243 244 244 245 245 246 246
280 281 281 281 281 281 280 280 279 279 278 278 277 276 276 276 276 276 277 277 277 277 277 276 276 276 275 274 273 272 272 271 271 271 272 272 273 274 274 273 272 271 269 268 267 267 267 267 266 266 265 265 264 265 265 266 265 263 260 257 254 252 250 248 247 246 246 245 245 245 245 245 244 244 245 245 246 246 246 246 246 245 245 245 245 245 245 244 243 243 243 243 243 243 243 243 243 243 243 244 245 245 246
277 278 278 278 279 279 278 278 278 278 277 276 276 276 275 275 275 274 275 275 275 276 276 276 276 276 275 275 274 273 273 272 271 271 271 271 271 272 273 273 273 272 271 271 269 268 267 267 267 267 267 266 265 265 264 265 266 266 265 263 260 257 254 252 250 248 247 247 246 246 246 246 246 245 245 246 246 247 247 247 247 246 246 246 246 246 246 246 246 245 245 244 244 244 243 243 243 243 243 244 244 245 245
275 275 275 275 275 275 275 275 275 275 275 275 275 275 274 274 273 273 273 273 274 274 274 275 275 275 275 275 275 274 274 273 272 271 271 270 270 270 271 272 272 272 272 272 271 269 268 268 267 268 268 268 267 266 265 265 265 265 265 265 264 262 260 257 254 252 250 249 248 248 248 247 247 247 247 247 247 248 248 248 248 248 248 248 247 247 247 248 248 248 247 246 245 245 245 244 244 244 244 244 244 245 245
274 274 274 274 274 273 273 273 273 273 273 273 273 273 273 273 273 272 272 272 272 273 273 273 274 274 274 274 274 274 274 274 273 273 272 271 271 270 270 270 271 271 271 271 271 270 270 269 268 268 268 268 268 268 267 266 266 265 265 265 265 265 264 262 260 257 254 252 251 250 250 249 249 249 249 248 249 249 249 250 250 250 250 249 249 248 248 249 249 249 249 248 248 247 246 246 245 245 245 245 245 245 245
274 273 273 273 272 272 271 271 270 270 270 270 270 270 270 271 271 271 271 271 271 272 272 272 272 273 273 273 274 274 274 274 274 273 273 273 272 272 271 271 270 270 270 271 270 270 270 269 269 268 268 267 268 268 267 267 267 266 265 264 264 264 265 265 264 262 260 257 255 254 252 252 251 251 250 250 250 250 250 251 251 251 251 251 251 251 250 250 250 250 250 250 249 249 248 248 247 247 247 246 246 246 246
273 273 273 272 272 271 270 270 269 269 269 268 268 269 269 269 269 270 270 270 270 270 270 271 271 271 272 272 272 273 273 273 273 273 273 273 273 272 272 271 271 271 270 270 270 270 270 269 269 268 267 267 267 267 267 267 267 267 266 265 265 264 264 265 265 265 264 262 260 258 256 254 253 252 252 251 251 251 251 251 251 252 252 252 253 252 252 252 251 250 250 251 251 250 250 250 250 250 249 249 249 248 248
273 273 273 272 272 271 270 270 269 268 268 268 267 267 267 268 268 268 268 268 269 269 269 269 270 270 270 271 271 271 272 272 272 272 272 272 272 272 272 272 271 271 271 270 270 270 270 270 269 268 267 267 267 266 266 266 266 266 266 266 266 265 264 264 264 264 264 264 263 261 260 258 256 254 253 252 251 251 251 251 251 251 252 252 252 253 252 253 253 252 251 252 252 252 252 252 252 252 252 252 251 251 250
273 273 273 272 272 272 271 270 269 268 268 267 267 267 267 267 267 267 267 267 267 267 268 268 268 269 269 270 270 270 271 271 271 271 271 271 271 271 271 271 271 271 271 270 270 270 270 269 269 268 268 267 267 266 266 265 265 265 266 266 266 265 265 265 264 264 264 264 263 263 262 261 260 257 256 254 253 252 252 251 251 251 252 252 252 252 253 253 253 253 253 254 254 253 253 253 253 254 254 254 254 253 252
273 273 273 273 272 272 272 271 270 269 268 268 267 267 267 267 267 266 267 267 267 267 267 268 268 268 268 268 269 269 269 270 270 270 270 270 270 271 271 271 271 271 270 270 270 270 269 269 269 269 268 268 267 267 266 265 265 265 265 265 265 265 265 265 265 265 264 264 263 263 263 262 261 260 259 257 256 254 253 252 252 252 252 252 252 252 253 253 254 254 255 256 255 255 254 254 254 254 255 255 254 254 254
273 273 273 273 273 272 272 272 271 270 270 269 268 268 268 267 267 267 267 267 267 267 267 267 267 267 267 268 268 268 268 268 269 269 269 269 270 270 270 270 270 270 270 270 270 270 269 269 269 269 268 268 267 267 267 266 265 265 264 264 264 264 264 264 265 265 265 264 264 263 263 263 262 262 261 260 259 257 256 255 254 253 253 252 252 252 253 253 254 254 255 256 256 256 256 255 255 255 255 255 254 255 255
273 273 273 273 273 273 272 271 271 271 270 270 270 269 269 268 268 268 267 267 267 267 267 267 267 267 267 267 267 267 268 268 268 268 269 269 269 269 269 269 269 269 269 269 269 269 269 269 269 269 268 268 268 267 267 266 266 265 265 264 264 264 264 264 264 264 264 265 264 264 264 263 263 262 262 262 261 260 259 258 257 256 255 254 254 253 253 254 254 254 255 256 256 256 256 255 255 255 255 255 255 255 255
272 273 272 272 272 272 272 271 271 271 270 270 270 270 270 270 269 269 269 268 268 267 268 268 268 268 268 267 267 267 267 268 268 268 268 268 268 268 269 269 269 269 269 269 269 269 269 269 269 268 268 268 268 268 267 267 266 266 265 265 264 264 264 263 263 263 263 264 264 264 264 264 263 263 263 262 262 262 261 261 260 259 258 257 256 256 255 255 255 255 255 255 256 257 257 256 255 255 255 255 255 256 256
272 272 272 271 271 271 271 271 270 270 270 270 270 270 270 270 270 269 269 269 269 268 268 268 268 268 268 268 268 268 268 268 268 268 268 267 267 268 268 268 268 269 269 269 269 269 268 268 268 268 268 268 268 268 267 267 267 266 266 265 265 264 264 264 263 263 263 263 263 264 264 264 264 263 263 263 263 263 262 262 262 261 261 260 259 258 258 257 256 256 256 255 255 256 256 256 256 256 257 256 256 256 256
271 271 271 271 270 270 270 270 270 270 269 269 269 269 269 269 269 269 269 269 269 268 268 268 268 268 268 268 268 268 268 268 268 268 268 268 267 267 267 267 268 268 268 269 268 268 268 268 268 268 268 268 268 268 268 267 267 267 267 266 266 265 265 264 264 264 263 263 263 263 263 263 263 263 263 263 263 263 263 262 263 262 262 262 262 261 260 260 259 258 257 257 256 256 256 256 257 257 257 256 256 257 256
271 271 270 270 270 270 269 269 269 269 269 268 268 268 268 268 268 268 268 268 268 268 268 268 268 268 268 268 268 268 268 268 268 268 268 268 267 267 267 267 267 267 268 268 268 268 268 268 268 268 268 268 268 268 268 268 267 268 267 267 266 266 266 265 265 264 264 263 263 263 263 263 263 263 263 263 263 263 263 263 263 263 263 263 263 263 262 262 261 260 260 259 258 257 257 257 257 257 256 256 256 256 256
270 270 270 270 270 269 269 269 269 268 268 268 268 268 268 268 268 268 268 268 268 268 268 268 268 268 268 268 268 268 268 268 268 268 268 268 268 267 267 266 266 266 267 267 268 268 268 268 268 267 268 268 268 268 268 268 268 268 268 267 267 267 266 266 266 265 265 264 264 263 263 263 262 262 262 262 263 263 263 263 263 263 263 263 263 263 263 263 263 262 262 261 260 259 258 258 257 257 256 255 254 253 252
270 270 270 270 270 269 269 269 269 269 269 268 268 268 268 268 268 268 268 268 268 268 268 268 268 268 268 268 269 269 269 269 269 269 269 268 268 268 268 267 267 266 266 266 267 267 267 267 267 267 267 267 267 268 268 268 268 268 268 268 267 267 267 266 266 266 266 265 265 264 264 263 263 262 262 262 262 262 262 263 263 263 263 263 263 263 263 263 263 263 263 263 262 261 261 260 259 258 257 257 255 253 251
270 270 270 270 270 270 270 270 270 269 269 269 269 269 269 269 269 269 268 268 268 268 268 268 269 269 269 269 269 269 269 269 269 269 269 269 269 269 269 269 268 267 267 266 266 267 267 267 267 267 267 267 267 267 267 267 267 268 268 268 267 267 267 267 267 266 266 266 266 265 265 264 264 263 263 262 262 262 262 262 262 262 263 263 263 263 263 263 264 264 264 263 263 263 262 262 261 260 259 258 257 256 254
270 270 270 270 270 270 270 270 271 270 270 271 271 271 270 270 270 270 270 270 270 270 270 270 270 270 270 269 269 269 270 270 270 270 270 270 270 270 270 270 269 269 268 268 267 267 267 267 267 267 267 267 267 267 267 267 267 267 267 267 267 267 267 267 267 266 266 266 266 266 266 265 265 264 264 263 262 262 261 261 261 262 262 262 262 262 263 263 263 263 263 263 263 263 263 263 262 262 261 260 259 258 257
270 270 271 271 271 271 271 272 272 272 272 272 272 272 272 272 272 272 272 272 271 271 271 271 271 271 271 271 271 271 271 271 271 271 271 271 271 270 270 270 270 270 270 269 268 268 268 268 268 267 267 267 267 266 267 267 266 266 267 267 267 267 267 267 267 267 266 266 266 266 266 266 266 265 265 264 264 263 262 262 261 261 261 261 261 262 262 262 262 263 263 263 263 263 263 263 263 263 262 262 261 260 259
271 271 272 272 272 273 273 273 273 273 273 273 274 274 273 273 273 273 273 273 273 273 273 272 272 272 272 272 272 272 272 272 272 272 272 272 272 272 272 271 271 271 271 271 270 270 269 269 269 269 268 268 267 267 267 267 266 266 266 266 266 266 266 266 266 266 266 266 266 267 267 267 266 266 266 266 265 264 264 263 262 261 261 261 261 261 261 261 261 262 262 262 262 263 263 263 263 263 263 262 262 261 261
272 272 273 273 273 274 274 275 275 275 275 275 275 274 274 274 274 274 274 274 274 274 274 273 273 273 273 273 273 273 274 274 274 274 274 274 274 274 273 273 273 273 273 273 272 272 272 271 271 270 270 270 269 269 268 268 267 267 267 266 266 266 266 266 266 266 266 266 266 266 267 267 267 267 267 266 266 266 265 264 263 263 262 261 261 261 260 260 260 260 261 261 261 262 262 262 262 262 262 262 262 262 262
272 273 274 274 275 276 276 276 276 276 276 276 276 275 275 275 275 275 275 275 275 275 274 274 274 274 274 274 274 274 274 275 275 275 275 276 276 276 275 275 275 275 274 274 274 274 274 273 273 273 272 272 271 271 270 270 269 268 268 267 267 267 267 266 266 266 266 266 266 266 266 266 267 267 267 267 267 267 266 266 265 264 264 263 262 262 261 261 260 260 260 260 260 261 261 261 261 261 262 262 262 262 262
274 274 275 275 276 276 276 276 276 276 276 276 276 276 276 276 276 276 276 276 275 275 275 275 275 275 275 275 275 275 275 275 275 275 276 276 277 277 277 277 277 277 277 276 276 276 276 275 275 275 274 274 273 273 272 272 271 270 269 269 269 268 268 267 267 267 267 267 266 266 266 266 266 266 267 267 267 267 267 267 266 266 265 265 264 263 263 262 262 261 261 261 261 260 261 261 261 261 261 261 261 261 262
275 276 276 276 276 277 277 277 277 276 276 276 276 276 276 276 276 276 276 276 276 276 276 276 276 275 275 275 275 275 276 276 276 276 276 276 277 277 277 278 278 278 278 278 278 277 277 277 277 276 276 276 276 275 275 274 273 272 272 271 270 270 269 269 268 268 267 267 267 267 267 266 266 266 266 266 266 267 267 267 267 267 267 266 266 265 265 264 263 263 262 262 262 261 261 261 261 261 261 261 261 261 261
276 276 277 277 277 277 277 277 276 276 276 276 276 276 276 276 276 276 276 276 276 276 276 276 276 276 276 276 276 276 276 276 276 276 276 276 277 277 277 278 278 278 278 278 278 278 278 278 278 278 278 278 277 277 276 276 275 274 274 273 272 272 271 270 270 269 269 268 268 268 267 267 267 267 266 266 266 266 266 267 267 267 267 267 267 266 266 266 265 265 264 263 263 263 262 262 262 262 262 261 261 261 261
276 277 277 277 277 277 277 277 276 276 276 276 276 276 276 276 277 277 277 277 277 277 277 277 277 277 278 278 278 278 277 278 278 278 278 278 278 278 278 278 278 278 278 278 278 278 279 279 278 278 278 278 278 278 278 277 277 276 275 275 274 273 273 272 271 271 270 270 269 269 269 268 268 267 267 267 267 266 266 266 266 266 267 267 267 267 267 267 267 266 266 265 265 264 264 264 263 263 263 263 262 262 262
277 277 277 277 277 277 277 277 276 276 276 277 277 277 277 277 278 278 278 278 278 278 279 279 279 279 279 279 279 279 280 279 279 280 280 280 280 280 280 280 280 280 279 279 279 279 279 279 279 279 279 279 279 279 279 278 278 277 277 276 276 275 275 274 273 273 272 271 270 270 270 269 269 268 268 268 267 267 267 267 267 266 266 267 267 267 267 267 267 267 267 267 266 266 266 265 265 265 264 264 264 264 264
276 277 277 277 277 277 277 277 277 277 277 277 278 278 278 279 279 279 280 280 280 280 280 280 281 281 281 281 281 282 282 282 282 282 282 282 282 282 282 282 282 281 281 281 281 281 281 281 281 280 280 280 280 280 279 279 279 278 278 277 277 276 276 275 275 274 273 273 272 271 271 270 270 269 269 269 269 268 268 268 267 267 267 267 267 267 267 267 267 267 267 267 267 267 267 267 266 266 266 266 265 265 265
276 277 277 277 277 277 277 277 277 278 278 278 279 279 279 280 280 281 281 281 282 282 282 283 283 283 283 284 284 284 284 284 284 284 284 284 284 283 283 283 283 283 283 283 282 283 282 282 282 282 282 281 281 281 280 280 280 279 279 278 278 277 277 276 276 276 275 274 274 273 272 271 271 270 270 269 269 269 269 269 268 268 268 268 268 267 267 267 267 267 267 268 268 268 268 268 268 267 267 267 267 266 266
277 277 277 277 277 277 277 277 278 278 279 279 279 280 281 281 281 282 282 282 283 283 284 284 285 285 285 285 285 285 286 286 286 286 286 285 285 285 284 284 284 283 283 283 283 283 283 283 283 283 283 283 283 282 282 281 281 280 280 279 278 278 278 277 277 277 276 276 275 274 273 273 272 271 270 270 270 269 269 269 269 269 269 268 268 268 268 268 268 267 267 268 268 268 268 268 268 268 268 268 268 267 267
277 277 277 277 277 278 278 278 279 279 279 280 280 280 281 281 282 282 283 283 283 284 284 285 285 285 286 286 286 287 287 287 287 287 287 286 286 286 285 285 284 284 284 284 283 283 284 284 284 284 284 284 284 283 283 283 282 282 281 280 280 279 279 278 278 277 277 277 276 275 275 274 273 272 272 271 270 270 270 269 269 269 269 269 268 268 268 268 268 268 268 268 268 268 268 268 268 268 268 268 268 268 268
277 278 278 278 278 279 279 279 279 280 280 280 281 281 281 282 282 283 283 283 284 284 285 285 285 286 287 287 287 287 287 287 287 287 287 287 287 286 286 285 285 284 284 284 283 283 283 284 284 284 284 284 284 284 284 284 283 283 282 282 281 281 280 279 279 278 277 277 276 276 276 275 274 274 273 272 272 271 270 270 269 269 269 268 268 268 268 268 268 268 268 268 268 267 267 267 267 267 268 268 268 268 268
278 278 279 279 279 279 280 280 280 280 281 281 281 282 282 282 282 283 283 284 284 285 285 286 286 286 287 287 288 288 288 288 288 288 288 288 287 286 286 285 285 285 284 284 284 284 284 284 284 284 285 285 285 285 285 285 284 284 284 283 283 282 281 280 279 279 278 277 276 276 276 275 275 274 274 273 273 272 271 271 270 269 269 269 268 268 268 268 268 268 268 268 267 268 267 267 267 267 267 267 267 267 267
279 279 279 280 280 280 280 280 281 281 281 281 281 282 282 282 283 283 284 284 285 285 286 286 287 287 288 288 289 289 289 289 289 289 289 288 288 287 287 286 286 285 285 285 284 284 284 284 285 285 285 286 286 286 285 285 285 285 284 284 283 283 282 281 280 279 278 277 276 276 275 275 275 274 274 274 273 273 272 272 271 270 270 269 269 268 268 268 268 268 268 268 268 267 268 267 267 267 267 267 267 267 267
279 280 280 280 280 280 281 281 281 281 281 281 281 282 282 283 283 284 284 285 286 286 287 287 288 288 289 289 290 290 290 290 290 290 290 290 289 289 288 287 287 286 286 286 286 285 285 285 286 286 286 286 287 287 286 286 286 285 285 284 284 283 282 281 280 279 278 277 276 275 275 274 274 274 273 273 273 273 272 272 271 271 270 270 269 269 269 268 268 268 268 268 268 268 268 268 268 268 267 267 267 267 267
280 280 281 281 281 281 281 281 281 281 281 281 281 282 282 283 283 284 285 285 286 286 287 288 288 289 290 290 290 291 291 291 291 291 291 291 291 290 290 289 289 288 287 287 287 287 287 287 287 288 288 288 288 288 287 287 287 286 285 285 284 283 282 281 280 280 278 277 276 275 275 274 273 273 273 272 272 272 272 272 272 271 271 271 270 270 270 269 269 269 268 268 268 268 268 268 268 268 268 268 268 268 267
281 281 282 282 282 282 282 281 281 281 281 281 281 282 282 283 283 284 285 285 286 287 287 288 288 289 290 290 291 291 291 292 292 292 292 292 292 292 291 291 290 290 289 289 289 289 289 289 289 289 289 289 289 289 289 288 288 287 286 285 284 284 282 282 281 280 279 278 277 276 275 274 273 273 272 272 272 271 271 271 271 271 271 271 271 270 270 270 270 269 269 269 269 269 268 268 268 268 268 268 268 268 268
281 281 282 282 282 282 282 281 281 281 281 282 282 282 283 283 284 284 285 285 286 287 287 288 288 289 290 290 291 291 292 292 292 292 293 293 292 292 292 291 291 291 290 290 290 290 290 290 290 290 291 291 291 290 290 289 289 288 287 286 285 284 283 282 281 280 279 278 277 276 275 274 274 273 272 272 272 271 271 271 271 271 271 271 271 271 270 270 270 270 270 270 269 269 269 269 269 269 268 268 268 268 268
281 282 282 282 282 282 282 281 281 281 281 282 282 282 283 283 284 284 285 285 286 287 287 288 288 289 289 290 290 291 291 292 292 292 293 293 293 292 292 292 292 291 291 291 291 291 290 291 291 291 291 292 292 291 291 290 290 289 288 287 286 285 283 282 281 280 279 278 278 277 276 275 274 273 273 272 272 271 271 271 271 271 271 271 270 270 270 270 270 270 270 270 270 269 269 269 269 269 269 269 268 268 268
281 281 281 281 281 281 281 281 281 281 281 282 282 283 283 284 284 285 285 286 286 287 287 288 288 288 289 289 290 290 291 291 292 292 292 292 293 293 292 292 292 292 292 291 291 291 291 291 291 291 291 292 292 292 291 291 290 289 289 287 286 285 284 283 282 281 280 279 278 277 276 276 275 274 273 273 272 272 271 271 271 271 270 270 270 270 270 270 270 270 270 270 270 269 269 269 269 269 269 269 268 268 268
280 280 281 281 281 281 281 281 281 281 281 282 282 283 283 284 284 285 285 285 286 286 287 287 288 288 289 289 289 290 290 291 291 291 292 292 292 293 293 293 293 293 293 292 292 292 291 291 291 291 291 292 292 292 291 291 290 290 289 288 287 285 284 283 282 281 280 279 279 278 277 276 276 275 274 273 273 272 272 271 271 271 271 271 270 270 270 270 270 270 270 269 269 269 269 269 269 269 269 268 268 268 268
280 280 280 280 280 280 280 280 280 280 281 281 282 282 283 283 284 284 285 285 286 286 287 287 287 288 288 288 289 289 289 290 290 291 291 291 292 292 293 293 293 293 293 293 293 292 292 292 291 291 291 292 292 292 291 291 290 290 289 288 287 285 284 283 282 281 281 280 279 279 278 277 276 276 275 274 273 273 273 272 272 272 271 271 271 271 271 270 270 270 270 269 269 269 269 269 269 268 268 268 268 268 268
280 279 279 279 279 279 279 279 279 280 280 281 281 282 282 283 283 284 284 285 286 286 286 287 287 287 288 288 288 289 289 289 289 290 290 291 291 292 292 293 293 294 294 294 294 293 293 293 292 292 292 292 292 292 291 291 290 290 289 288 287 285 284 283 282 282 281 280 280 279 278 278 277 276 276 275 274 274 273 273 273 272 272 272 272 271 271 271 271 270 270 270 270 269 269 269 268 268 268 268 267 267 267
279 279 279 279 278 278 279 279 279 279 280 280 281 281 282 282 283 283 284 285 285 286 286 287 287 287 287 288 288 288 289 289 289 290 290 290 291 291 292 293 293 294 294 294 295 294 294 294 294 293 292 293 293 292 292 291 291 290 289 288 287 285 284 283 283 282 281 281 280 279 279 278 277 277 276 276 275 274 274 274 273 273 273 273 272 272 272 272 272 271 271 271 270 270 269 269 269 268 268 268 268 267 267
279 279 278 278 278 278 278 278 279 279 280 280 281 281 282 282 283 283 284 285 285 286 286 286 287 287 287 287 288 288 288 289 289 289 290 290 291 291 292 293 293 294 294 294 295 295 295 295 295 294 293 293 293 293 293 292 291 291 290 288 287 286 285 284 283 282 281 281 280 280 279 278 278 277 277 276 276 275 275 274 274 274 273 273 273 273 272 272 272 272 272 271 271 270 270 269 269 269 268 268 268 267 267
278 278 278 278 278 278 278 278 278 279 279 280 280 281 281 282 283 283 284 285 285 286 286 287 287 287 287 287 288 288 288 289 289 289 290 290 291 291 292 292 293 293 294 295 295 296 295 295 295 295 294 294 294 293 293 293 292 291 290 289 288 286 285 284 283 283 282 281 281 280 280 279 278 278 277 277 276 276 275 275 275 274 274 274 273 273 273 272 272 272 272 272 271 271 270 270 269 269 269 268 268 268 267
278 278 277 277 277 278 278 278 278 279 279 280 280 281 282 282 283 284 284 285 285 286 286 287 287 287 287 287 288 288 288 289 289 289 290 290 291 291 292 292 293 294 294 295 295 295 296 296 295 295 295 295 294 294 294 293 293 292 291 290 289 287 286 285 284 283 283 282 282 281 281 280 279 279 278 278 277 277 276 276 275 275 274 274 274 273 273 273 272 272 272 272 271 271 271 270 270 269 269 269 268 268 268
277 277 277 277 277 278 278 278 279 279 280 280 281 281 282 283 283 284 284 285 286 286 286 286 287 287 287 287 288 288 288 289 289 289 290 291 291 291 292 293 293 294 294 294 295 295 295 296 296 296 296 295 295 295 294 294 293 293 292 291 290 289 287 286 285 284 284 283 283 282 282 281 280 280 279 278 278 277 277 276 276 275 275 274 274 274 273 273 273 272 272 272 272 271 271 271 271 270 270 269 269 269 268
277 277 277 277 278 278 279 279 279 280 280 281 281 282 283 283 284 285 285 286 286 286 287 287 287 287 287 287 288 288 289 289 289 290 290 291 291 292 292 293 293 293 294 294 295 295 295 295 296 296 296 296 295 295 295 294 294 293 292 292 291 290 288 287 287 286 285 284 284 283 283 282 281 281 280 279 279 278 277 277 276 276 275 275 274 274 273 273 273 272 272 272 272 272 271 271 271 271 271 270 270 270 269
277 277 277 278 279 279 280 280 280 281 281 282 283 284 284 285 285 286 286 287 287 287 287 287 287 287 287 288 288 288 289 289 289 290 290 291 291 292 292 293 293 293 294 294 294 295 295 295 295 295 296 296 296 295 295 294 294 294 293 292 292 291 290 289 288 287 286 285 285 284 284 283 282 282 281 280 280 279 278 278 277 277 276 275 275 274 274 274 273 273 273 272 272 272 272 272 272 272 271 271 271 271 270
276 277 277 278 279 280 280 281 281 282 283 283 284 285 286 286 287 287 288 288 288 288 288 288 288 288 287 288 288 288 289 289 289 290 290 291 292 292 292 292 293 293 293 294 294 294 294 295 295 295 295 295 295 295 295 294 294 294 293 293 292 291 291 290 289 288 287 287 286 285 285 284 284 283 282 282 281 281 280 280 279 278 278 277 277 276 276 275 275 274 274 274 274 273 273 273 273 273 273 272 272 272 272
276 277 277 279 279 280 281 282 282 283 284 285 285 286 287 287 288 288 289 289 289 289 288 288 288 288 288 288 288 288 289 289 290 290 290 291 291 292 292 292 292 293 293 293 293 293 294 294 294 294 295 295 295 295 295 295 294 294 293 293 293 292 291 291 290 290 289 288 288 287 286 286 285 285 284 284 283 283 282 282 281 281 280 280 279 278 278 277 277 277 276 276 276 276 275 275 275 275 274 274 274 274 273